When you browse on this site, cookies collect data to enhance your experience and personalize the content and advertising you see.
Visit our Privacy Policy to learn more. By continuing to use the site, you agree to this use of cookies and data.
  • In Hungary
  • List of Countries
  • For 7 days
  • Water Temperature
  • Satellite Maps
  • Weather Map
  • News
  • Weather Widgets
  • user-avatar
    Login

    Hourly Weather Sukhumi

    Today, 18 November, Sunday

    Time Temperature Precipitation Wind Pressure Humidity
    00:00 +8°C° 0.3 mm 3 mps 762 mmHg 85%
    01:00 +8°C° 0.1 mm 3 mps 762 mmHg 84%
    02:00 +7°C° 0.1 mm 3 mps 762 mmHg 83%
    03:00 +7°C° 0 mm 3 mps 762 mmHg 83%
    04:00 +7°C° 0 mm 3 mps 761 mmHg 82%
    05:00 +7°C° 0 mm 3 mps 761 mmHg 80%
    06:00 +7°C° 0 mm 3 mps 761 mmHg 79%
    07:00 +8°C° 0 mm 3 mps 761 mmHg 77%
    08:00 +9°C° 0 mm 3 mps 761 mmHg 75%
    09:00 +10°C° 0 mm 3 mps 761 mmHg 73%
    10:00 +11°C° 0 mm 3 mps 761 mmHg 71%
    11:00 +12°C° 0 mm 3 mps 760 mmHg 69%
    12:00 +12°C° 0 mm 3 mps 760 mmHg 68%
    13:00 +13°C° 0 mm 2 mps 760 mmHg 68%
    14:00 +13°C° 0 mm 2 mps 760 mmHg 68%
    15:00 +13°C° 0 mm 2 mps 760 mmHg 68%
    16:00 +12°C° 0 mm 2 mps 760 mmHg 72%
    17:00 +9°C° 0 mm 2 mps 760 mmHg 76%
    18:00 +8°C° 0 mm 2 mps 760 mmHg 80%
    19:00 +7°C° 0 mm 3 mps 760 mmHg 76%
    20:00 +7°C° 0 mm 3 mps 760 mmHg 71%
    21:00 +7°C° 0 mm 3 mps 760 mmHg 67%
    22:00 +7°C° 0 mm 3 mps 760 mmHg 62%
    23:00 +7°C° 0 mm 3 mps 760 mmHg 57%

    Tomorrow, 19 November, Monday

    Time Temperature Precipitation Wind Pressure Humidity
    00:00 +6°C° 0 mm 4 mps 760 mmHg 52%
    01:00 +6°C° 0 mm 4 mps 759 mmHg 51%
    02:00 +6°C° 0 mm 4 mps 759 mmHg 51%
    03:00 +6°C° 0 mm 4 mps 759 mmHg 51%
    04:00 +6°C° 0 mm 4 mps 759 mmHg 52%
    05:00 +6°C° 0 mm 4 mps 759 mmHg 53%
    06:00 +6°C° 0 mm 4 mps 758 mmHg 54%
    07:00 +8°C° 0 mm 4 mps 758 mmHg 53%
    08:00 +10°C° 0 mm 4 mps 758 mmHg 53%
    09:00 +11°C° 0 mm 4 mps 758 mmHg 52%
    10:00 +13°C° 0 mm 4 mps 757 mmHg 51%
    11:00 +15°C° 0 mm 4 mps 757 mmHg 49%
    12:00 +17°C° 0 mm 4 mps 756 mmHg 48%
    13:00 +17°C° 0 mm 4 mps 756 mmHg 50%
    14:00 +17°C° 0 mm 3 mps 756 mmHg 52%
    15:00 +17°C° 0 mm 3 mps 756 mmHg 54%
    16:00 +15°C° 0 mm 4 mps 756 mmHg 56%
    17:00 +14°C° 0 mm 4 mps 756 mmHg 57%
    18:00 +12°C° 0 mm 4 mps 756 mmHg 59%
    19:00 +12°C° 0.1 mm 4 mps 756 mmHg 58%
    20:00 +12°C° 0.1 mm 5 mps 756 mmHg 56%
    21:00 +13°C° 0.1 mm 5 mps 756 mmHg 55%
    22:00 +13°C° 0.1 mm 5 mps 756 mmHg 57%
    23:00 +13°C° 0.1 mm 5 mps 756 mmHg 60%

    Day after tomorrow, 20 November, Tuesday

    Time Temperature Precipitation Wind Pressure Humidity
    00:00 +13°C° 0.1 mm 5 mps 756 mmHg 62%
    01:00 +13°C° 0 mm 5 mps 756 mmHg 63%
    02:00 +13°C° 0 mm 5 mps 756 mmHg 63%
    03:00 +13°C° 0 mm 5 mps 756 mmHg 63%
    04:00 +13°C° 0.1 mm 4 mps 756 mmHg 65%
    05:00 +13°C° 0.1 mm 4 mps 756 mmHg 67%
    06:00 +13°C° 0.1 mm 4 mps 756 mmHg 69%
    07:00 +13°C° 0.3 mm 4 mps 757 mmHg 71%
    08:00 +13°C° 0.3 mm 4 mps 757 mmHg 72%
    09:00 +14°C° 0.3 mm 4 mps 757 mmHg 74%
    10:00 +14°C° 0.7 mm 4 mps 757 mmHg 75%
    11:00 +13°C° 0.7 mm 4 mps 757 mmHg 76%
    12:00 +13°C° 0.7 mm 3 mps 757 mmHg 77%
    13:00 +13°C° 0.6 mm 3 mps 757 mmHg 78%
    14:00 +13°C° 0.6 mm 3 mps 757 mmHg 80%
    15:00 +13°C° 0.6 mm 3 mps 757 mmHg 82%
    16:00 +12°C° 0.5 mm 3 mps 757 mmHg 83%
    17:00 +12°C° 0.5 mm 3 mps 758 mmHg 85%
    18:00 +12°C° 0.5 mm 3 mps 758 mmHg 87%
    19:00 +12°C° 0.5 mm 3 mps 758 mmHg 87%
    20:00 +12°C° 0.5 mm 3 mps 758 mmHg 87%
    21:00 +12°C° 0.5 mm 3 mps 758 mmHg 86%
    22:00 +13°C° 0.3 mm 2 mps 758 mmHg 85%
    23:00 +12°C° 0.3 mm 2 mps 758 mmHg 85%

    21 November, Wednesday

    Time Temperature Precipitation Wind Pressure Humidity
    00:00 +12°C° 0.3 mm 2 mps 758 mmHg 84%
    01:00 +10°C° 0.1 mm 2 mps 758 mmHg 83%
    02:00 +10°C° 0.1 mm 2 mps 758 mmHg 82%
    03:00 +9°C° 0.1 mm 2 mps 758 mmHg 80%
    04:00 +9°C° 0 mm 2 mps 758 mmHg 78%
    05:00 +9°C° 0 mm 2 mps 758 mmHg 75%
    06:00 +9°C° 0 mm 2 mps 758 mmHg 73%
    07:00 +10°C° 0 mm 2 mps 758 mmHg 70%
    08:00 +12°C° 0 mm 2 mps 758 mmHg 68%
    09:00 +12°C° 0 mm 2 mps 758 mmHg 65%
    10:00 +13°C° 0 mm 2 mps 757 mmHg 63%
    11:00 +15°C° 0 mm 2 mps 757 mmHg 60%
    12:00 +16°C° 0 mm 2 mps 756 mmHg 57%
    13:00 +16°C° 0 mm 2 mps 756 mmHg 59%
    14:00 +15°C° 0 mm 2 mps 755 mmHg 60%
    15:00 +15°C° 0 mm 1 mps 755 mmHg 61%
    16:00 +14°C° 0 mm 1 mps 755 mmHg 64%
    17:00 +13°C° 0 mm 1 mps 755 mmHg 68%
    18:00 +12°C° 0 mm 2 mps 755 mmHg 71%
    19:00 +12°C° 0 mm 2 mps 755 mmHg 69%
    20:00 +12°C° 0 mm 2 mps 755 mmHg 68%
    21:00 +12°C° 0 mm 2 mps 755 mmHg 66%
    22:00 +12°C° 0 mm 2 mps 755 mmHg 67%
    23:00 +11°C° 0 mm 3 mps 754 mmHg 68%

    22 November, Thursday

    Time Temperature Precipitation Wind Pressure Humidity
    00:00 +11°C° 0 mm 3 mps 754 mmHg 69%
    01:00 +11°C° 0.1 mm 3 mps 754 mmHg 71%
    02:00 +11°C° 0.1 mm 3 mps 754 mmHg 73%
    03:00 +11°C° 0.1 mm 3 mps 753 mmHg 75%
    04:00 +11°C° 0.1 mm 3 mps 753 mmHg 76%
    05:00 +11°C° 0.1 mm 3 mps 753 mmHg 77%
    06:00 +12°C° 0.1 mm 2 mps 753 mmHg 79%
    07:00 +13°C° 0.2 mm 2 mps 753 mmHg 78%
    08:00 +13°C° 0.2 mm 2 mps 753 mmHg 78%
    09:00 +14°C° 0.2 mm 2 mps 753 mmHg 77%
    10:00 +14°C° 0.2 mm 2 mps 753 mmHg 77%
    11:00 +15°C° 0.2 mm 2 mps 753 mmHg 76%
    12:00 +15°C° 0.2 mm 2 mps 753 mmHg 76%
    13:00 +15°C° 0.2 mm 2 mps 753 mmHg 77%
    14:00 +15°C° 0.2 mm 2 mps 753 mmHg 78%
    15:00 +15°C° 0.2 mm 2 mps 753 mmHg 79%
    16:00 +14°C° 0.2 mm 2 mps 753 mmHg 82%
    17:00 +13°C° 0.2 mm 1 mps 753 mmHg 85%
    18:00 +13°C° 0.2 mm 1 mps 753 mmHg 88%
    19:00 +12°C° 0.2 mm 1 mps 753 mmHg 88%
    20:00 +12°C° 0.2 mm 1 mps 754 mmHg 87%
    21:00 +12°C° 0.2 mm 1 mps 754 mmHg 87%
    22:00 +12°C° 0.3 mm 1 mps 754 mmHg 87%
    23:00 +12°C° 0.3 mm 1 mps 754 mmHg 87%

    23 November, Friday

    Time Temperature Precipitation Wind Pressure Humidity
    00:00 +12°C° 0.3 mm 1 mps 754 mmHg 86%
    01:00 +12°C° 0.3 mm 1 mps 754 mmHg 86%
    02:00 +12°C° 0.3 mm 1 mps 754 mmHg 86%
    03:00 +11°C° 0.3 mm 1 mps 754 mmHg 87%
    04:00 +11°C° 0.3 mm 1 mps 754 mmHg 87%
    05:00 +10°C° 0.3 mm 2 mps 755 mmHg 87%
    06:00 +10°C° 0.3 mm 2 mps 755 mmHg 87%
    07:00 +12°C° 0.1 mm 2 mps 755 mmHg 85%
    08:00 +12°C° 0.1 mm 2 mps 756 mmHg 83%
    09:00 +13°C° 0.1 mm 2 mps 756 mmHg 81%
    10:00 +13°C° 0.1 mm 2 mps 756 mmHg 81%
    11:00 +14°C° 0.1 mm 2 mps 756 mmHg 81%
    12:00 +15°C° 0.1 mm 2 mps 756 mmHg 81%
    13:00 +14°C° 0.1 mm 2 mps 756 mmHg 83%
    14:00 +14°C° 0.1 mm 2 mps 757 mmHg 85%
    15:00 +14°C° 0.1 mm 2 mps 757 mmHg 87%
    16:00 +13°C° 0.1 mm 2 mps 757 mmHg 90%
    17:00 +13°C° 0.1 mm 2 mps 758 mmHg 93%
    18:00 +12°C° 0.1 mm 2 mps 759 mmHg 96%
    19:00 +12°C° 0.2 mm 2 mps 759 mmHg 94%
    20:00 +11°C° 0.2 mm 3 mps 759 mmHg 91%
    21:00 +11°C° 0.2 mm 3 mps 760 mmHg 89%
    22:00 +11°C° 0.2 mm 3 mps 760 mmHg 87%
    23:00 +10°C° 0.2 mm 3 mps 760 mmHg 85%
    Show more